Jefferson, NC

8:17 AM EDT on May 23, 2017 (GMT -0400)
Ashe County

Weather History for KGEV - October, 2014

Change the Weather History Date:

Wednesday, October 22, 2014

  Actual Average Record
Temperature  
Mean Temperature 44 °F -  
Max Temperature 48 °F 63 °F 77 °F (1984)
Min Temperature 39 °F 35 °F 21 °F (1974)
Degree Days  
Heating Degree Days 22    
Moisture  
Dew Point 33 °F    
Average Humidity 69    
Maximum Humidity 76    
Minimum Humidity 57    
Precipitation  
Precipitation 0.00 in - - ()
Sea Level Pressure  
Sea Level Pressure 30.06 in    
Wind  
Wind Speed 16 mph (NW)    
Max Wind Speed 25 mph    
Max Gust Speed 37 mph    
Visibility 10 miles    
Events      
Averages and records for this station are not official NWS values.
T = Trace of Precipitation, MM = Missing Value Source: NWS Daily Summary

Daily Weather History Graph

Daily Weather History Graph

Search for Another Location

Airport or City:

Trip Planner

Search our weather history database for the weather conditions in past years. The results will help you decide how hot, cold, wet, or windy it might be!

Date:

Astronomy

Oct. 22, 2014 Rise Set
Actual Time 7:39 AM EDT 6:40 PM EDT
Civil Twilight 7:13 AM EDT 7:06 PM EDT
Nautical Twilight 6:42 AM EDT 7:36 PM EDT
Astronomical Twilight 6:13 AM EDT 8:06 PM EDT
Moon 6:21 AM EDT (10/22) 6:04 PM EDT (10/22)
Length of Visible Light 11h 53m
Length of Day
11h 01m
Waning Crescent, 2% of the Moon is Illuminated
Oct 22
Waning Crescent
Oct 23
New
Oct 30
First Quarter
Nov 6
Full
Nov 14
Last Quarter

Hourly Weather History & Observations

Time (EDT) Temp. Windchill Dew Point Humidity Pressure Visibility Wind Dir Wind Speed Gust Speed Precip Events Conditions
12:15 AM 42.3 °F 33.8 °F 33.1 °F 70% 29.99 in 10.0 mi NW 18.4 mph 29.9 mph N/A   Scattered Clouds
12:35 AM 41.9 °F 34.6 °F 32.4 °F 69% 29.99 in 10.0 mi NW 13.8 mph 24.2 mph N/A   Clear
12:55 AM 41.9 °F 33.7 °F 32.4 °F 69% 29.99 in 10.0 mi NW 17.3 mph 26.5 mph N/A   Scattered Clouds
1:15 AM 41.9 °F 34.6 °F 32.9 °F 70% 29.98 in 10.0 mi NW 13.8 mph 24.2 mph N/A   Mostly Cloudy
1:35 AM 41.9 °F 33.7 °F 32.9 °F 70% 29.98 in 10.0 mi NW 17.3 mph 25.3 mph N/A   Scattered Clouds
1:55 AM 41.5 °F 32.9 °F 33.1 °F 72% 29.98 in 10.0 mi NW 18.4 mph 28.8 mph N/A   Clear
2:15 AM 41.4 °F 33.0 °F 33.3 °F 73% 29.98 in 10.0 mi NW 17.3 mph 26.5 mph N/A   Scattered Clouds
2:35 AM 41.4 °F 32.1 °F 33.3 °F 73% 29.98 in 10.0 mi NW 20.7 mph 28.8 mph N/A   Scattered Clouds
2:55 AM 41.5 °F 33.2 °F 33.4 °F 73% 29.98 in 10.0 mi NW 17.3 mph 26.5 mph N/A   Mostly Cloudy
3:15 AM 41.4 °F 34.7 °F 33.8 °F 74% 29.99 in 10.0 mi NW 11.5 mph 21.9 mph N/A   Mostly Cloudy
3:35 AM 41.2 °F 33.7 °F 33.8 °F 75% 29.98 in 10.0 mi NW 13.8 mph 21.9 mph N/A   Mostly Cloudy
3:55 AM 41.0 °F 32.2 °F 33.3 °F 74% 29.98 in 10.0 mi NW 18.4 mph 26.5 mph N/A   Scattered Clouds
4:15 AM 41.0 °F 33.5 °F 33.1 °F 73% 29.99 in 10.0 mi NW 13.8 mph 21.9 mph N/A   Clear
4:35 AM 40.5 °F 31.8 °F 33.3 °F 75% 29.98 in 10.0 mi NW 17.3 mph 28.8 mph N/A   Scattered Clouds
4:55 AM 40.3 °F 31.6 °F 32.9 °F 75% 29.98 in 10.0 mi NW 17.3 mph 29.9 mph N/A   Clear
5:15 AM 40.3 °F 31.6 °F 32.0 °F 72% 29.98 in 10.0 mi NW 17.3 mph 34.5 mph N/A   Clear
5:35 AM 40.1 °F 29.5 °F 32.0 °F 73% 29.99 in 10.0 mi NW 25.3 mph 36.8 mph N/A   Clear
5:55 AM 40.1 °F 30.2 °F 32.0 °F 73% 30.00 in 10.0 mi NW 21.9 mph 28.8 mph N/A   Clear
6:15 AM 39.7 °F 30.3 °F 32.0 °F 74% 30.01 in 10.0 mi NW 19.6 mph 26.5 mph N/A   Scattered Clouds
6:35 AM 39.4 °F 29.5 °F 30.9 °F 72% 30.02 in 10.0 mi NNW 20.7 mph 32.2 mph N/A   Scattered Clouds
6:55 AM 39.2 °F 29.0 °F 31.1 °F 73% 30.02 in 10.0 mi NNW 21.9 mph 28.8 mph N/A   Scattered Clouds
7:15 AM 39.2 °F 29.6 °F 30.9 °F 72% 30.03 in 10.0 mi NW 19.6 mph 29.9 mph N/A   Scattered Clouds
7:35 AM 39.2 °F 29.6 °F 31.1 °F 73% 30.04 in 10.0 mi NW 19.6 mph 27.6 mph N/A   Mostly Cloudy
7:55 AM 39.2 °F 29.8 °F 31.5 °F 74% 30.05 in 10.0 mi NNW 18.4 mph 25.3 mph N/A   Overcast
8:15 AM 39.2 °F 29.8 °F 31.1 °F 73% 30.05 in 10.0 mi NNW 18.4 mph 26.5 mph N/A   Mostly Cloudy
8:35 AM 39.2 °F 30.2 °F 31.5 °F 74% 30.05 in 10.0 mi NW 17.3 mph 26.5 mph N/A   Scattered Clouds
8:55 AM 39.6 °F 31.3 °F 31.6 °F 73% 30.07 in 10.0 mi NNW 15.0 mph 31.1 mph N/A   Scattered Clouds
9:15 AM 40.8 °F 32.9 °F 32.0 °F 71% 30.07 in 10.0 mi NNW 15.0 mph 24.2 mph N/A   Scattered Clouds
9:35 AM 41.7 °F 35.2 °F 32.0 °F 68% 30.07 in 10.0 mi NNW 11.5 mph 21.9 mph N/A   Scattered Clouds
9:55 AM 41.5 °F 33.5 °F 32.0 °F 69% 30.09 in 10.0 mi North 16.1 mph 24.2 mph N/A   Mostly Cloudy
10:15 AM 44.1 °F 36.2 °F 32.0 °F 63% 30.08 in 10.0 mi NNW 18.4 mph 26.5 mph N/A   Scattered Clouds
10:35 AM 44.6 °F 37.8 °F 32.0 °F 61% 30.09 in 10.0 mi NNW 15.0 mph 25.3 mph N/A   Scattered Clouds
10:55 AM 44.8 °F 38.0 °F 32.2 °F 61% 30.09 in 10.0 mi NNW 15.0 mph 28.8 mph N/A   Scattered Clouds
11:15 AM 45.5 °F 38.6 °F 32.9 °F 61% 30.09 in 10.0 mi NNW 16.1 mph 25.3 mph N/A   Scattered Clouds
11:35 AM 46.4 °F 39.2 °F 32.9 °F 59% 30.09 in 10.0 mi NW 18.4 mph 23.0 mph N/A   Clear
11:55 AM 46.9 °F - 32.9 °F 58% 30.09 in 10.0 mi NW 19.6 mph 32.2 mph N/A   Clear
12:15 PM 48.2 °F - 33.4 °F 57% 30.11 in 10.0 mi NW 10.4 mph 17.3 mph N/A   Clear
12:35 PM 47.1 °F - 33.1 °F 58% 30.11 in 10.0 mi NW 11.5 mph 19.6 mph N/A   Scattered Clouds
12:55 PM 47.1 °F - 33.1 °F 58% 30.11 in 10.0 mi NW 9.2 mph 20.7 mph N/A   Mostly Cloudy
1:15 PM 46.9 °F - 33.6 °F 60% 30.10 in 10.0 mi NW 12.7 mph - N/A   Overcast
1:35 PM 46.6 °F - 34.0 °F 62% 30.10 in 10.0 mi NW 12.7 mph 20.7 mph N/A   Overcast
1:55 PM 46.4 °F 41.9 °F 34.0 °F 62% 30.10 in 10.0 mi WNW 9.2 mph 25.3 mph N/A   Overcast
2:15 PM 46.9 °F - 34.7 °F 62% 30.10 in 10.0 mi NW 11.5 mph 24.2 mph N/A   Mostly Cloudy
2:35 PM 46.4 °F 40.7 °F 34.5 °F 63% 30.10 in 10.0 mi NW 12.7 mph 21.9 mph N/A   Mostly Cloudy
2:55 PM 46.0 °F 39.9 °F 34.5 °F 64% 30.10 in 10.0 mi NW 13.8 mph 21.9 mph N/A   Overcast
3:15 PM 45.9 °F 40.8 °F 34.5 °F 65% 30.11 in 10.0 mi NW 10.4 mph 20.7 mph N/A   Overcast
3:35 PM 46.4 °F 41.1 °F 34.5 °F 63% 30.11 in 10.0 mi NW 11.5 mph - N/A   Overcast
3:55 PM 46.2 °F 40.5 °F 34.7 °F 64% 30.11 in 10.0 mi NW 12.7 mph 20.7 mph N/A   Overcast
4:15 PM 45.5 °F 38.3 °F 34.0 °F 64% 30.10 in 10.0 mi NW 17.3 mph 23.0 mph N/A   Overcast
4:35 PM 45.7 °F 39.8 °F 34.0 °F 64% 30.10 in 10.0 mi NW 12.7 mph 23.0 mph N/A   Mostly Cloudy
4:55 PM 45.5 °F 39.6 °F 34.0 °F 64% 30.10 in 10.0 mi NW 12.7 mph 19.6 mph N/A   Scattered Clouds
5:15 PM 44.8 °F 38.0 °F 33.8 °F 65% 30.10 in 10.0 mi NW 15.0 mph 20.7 mph N/A   Mostly Cloudy
5:35 PM 43.9 °F 37.5 °F 33.8 °F 68% 30.10 in 10.0 mi NW 12.7 mph 23.0 mph N/A   Mostly Cloudy
5:55 PM 43.5 °F 36.1 °F 33.8 °F 69% 30.10 in 10.0 mi NW 16.1 mph 24.2 mph N/A   Mostly Cloudy
6:15 PM 43.0 °F 35.4 °F 33.4 °F 69% 30.11 in 10.0 mi NNW 16.1 mph 25.3 mph N/A   Mostly Cloudy
6:35 PM 42.8 °F 35.4 °F 33.4 °F 70% 30.11 in 10.0 mi NW 15.0 mph 26.5 mph N/A   Overcast
6:55 PM 42.8 °F 36.2 °F 34.0 °F 71% 30.11 in 10.0 mi NNW 12.7 mph 26.5 mph N/A   Overcast
7:15 PM 41.9 °F 34.0 °F 34.0 °F 73% 30.09 in 10.0 mi NW 16.1 mph 25.3 mph N/A   Mostly Cloudy
7:35 PM 41.9 °F 34.0 °F 33.8 °F 73% 30.09 in 10.0 mi NW 16.1 mph 23.0 mph N/A   Scattered Clouds
7:55 PM 41.7 °F 35.6 °F 33.8 °F 73% 30.10 in 10.0 mi NW 10.4 mph 20.7 mph N/A   Scattered Clouds
8:15 PM 41.9 °F 33.7 °F 33.8 °F 73% 30.10 in 10.0 mi NW 17.3 mph 24.2 mph N/A   Scattered Clouds
8:35 PM 41.5 °F 33.5 °F 33.8 °F 74% 30.10 in 10.0 mi NW 16.1 mph 24.2 mph N/A   Scattered Clouds
8:55 PM 41.5 °F 32.9 °F 33.8 °F 74% 30.09 in 10.0 mi NW 18.4 mph 27.6 mph N/A   Clear
9:15 PM 41.5 °F 32.6 °F 33.4 °F 73% 30.09 in 10.0 mi NW 19.6 mph 28.8 mph N/A   Clear
9:35 PM 41.5 °F 35.0 °F 33.8 °F 74% 30.10 in 10.0 mi NW 11.5 mph 24.2 mph N/A   Clear
9:55 PM 41.4 °F 34.3 °F 33.6 °F 74% 30.10 in 10.0 mi NNW 12.7 mph 20.7 mph N/A   Clear
10:15 PM 41.4 °F 36.2 °F 33.4 °F 73% 30.11 in 10.0 mi NW 8.1 mph 19.6 mph N/A   Clear
10:35 PM 41.4 °F 34.7 °F 33.3 °F 73% 30.11 in 10.0 mi NNW 11.5 mph 18.4 mph N/A   Clear
10:55 PM 41.4 °F 35.7 °F 33.6 °F 74% 30.11 in 10.0 mi NNW 9.2 mph 19.6 mph N/A   Clear
11:15 PM 41.0 °F 35.8 °F 33.8 °F 76% 30.11 in 10.0 mi NNW 8.1 mph 17.3 mph N/A   Clear
11:35 PM 40.8 °F 36.9 °F 33.6 °F 76% 30.11 in 10.0 mi NNW 5.8 mph - N/A   Scattered Clouds
11:55 PM 41.0 °F 37.1 °F 33.3 °F 74% 30.11 in 10.0 mi WNW 5.8 mph - N/A   Scattered Clouds